• Join FlightAware (Why Join?)
  • Login
  • US Flag GB Flag 
04:23 EST


 

Airport Tracker/Info


-or-


 

Live Flight TrackerFlight Track Log ✈ UCA4838 ✈ 28-Jun-2013 ✈ KROC - KEWR

Flight Track Log - Related Links

Times and Time Zones

All times are in EDT time to prevent confusion due to time zone crossing. See the UCA4838 flight status page for this flight to view local times or setup timezone preferences in your user account.

Time Position Orientation Groundspeed Altitude Reporting Facility
EDT Latitude Longitude Course Direction KTS MPH feet Rate Location/Type
06:19 43.1014 -77.6942 214° Southwest 136 157 1,200  Level Cleveland Center
06:19 43.0750 -77.7183 214° Southwest 152 175 1,800 1,080 Climbing Cleveland Center
06:20 43.0272 -77.7261 187° South 183 211 3,100 1,080 Climbing Cleveland Center
06:21 43.0050 -77.6647 116° Southeast 181 208 4,000 900 Climbing Cleveland Center
06:22 42.9864 -77.5972 111° Southeast 181 208 5,000 960 Climbing Cleveland Center
06:23 42.9681 -77.5272 110° East 187 215 6,000 900 Climbing Cleveland Center
06:24 42.9475 -77.4603 113° Southeast 192 221 6,900 780 Climbing Cleveland Center
06:27 42.9081 -77.2936 108° East 198 228 8,700 780 Climbing New York Center
06:28 42.8869 -77.2208 112° Southeast 198 228 9,500 780 Climbing New York Center
06:29 42.8658 -77.1478 111° Southeast 198 228 10,300 720 Climbing New York Center
06:30 42.8453 -77.0694 110° East 198 228 11,000 660 Climbing New York Center
06:31 42.8242 -76.9939 111° Southeast 203 234 11,700 720 Climbing New York Center
06:32 42.7925 -76.9203 120° Southeast 208 239 12,500 660 Climbing New York Center
06:33 42.7589 -76.8464 122° Southeast 222 255 13,100 180 Climbing New York Center
06:34 42.7069 -76.7328 122° Southeast 232 267 13,000 -180 Descending Boston Center
06:35 42.6686 -76.6453 121° Southeast 249 287 12,800 -420 Descending Boston Center
06:36 42.6281 -76.5550 121° Southeast 267 307 12,200 -600 Descending Boston Center
06:37 42.5875 -76.4647 121° Southeast 280 322 11,600 -600 Descending Boston Center
06:38 42.5453 -76.3661 120° Southeast 291 335 11,000 -360 Descending Boston Center
06:39 42.5022 -76.2761 123° Southeast 291 335 10,900 -60 Descending Boston Center
06:40 42.4675 -76.1953 120° Southeast 285 328 10,900  Level Boston Center
06:41 42.4286 -76.1083 121° Southeast 274 315 10,900  Level Boston Center
06:42 42.3878 -76.0189 122° Southeast 283 326 10,900  Level Boston Center
06:43 42.3467 -75.9294 122° Southeast 271 312 10,900  Level Boston Center
06:44 42.3078 -75.8428 121° Southeast 276 318 10,900  Level Boston Center
06:45 42.2647 -75.7481 122° Southeast 271 312 10,900  Level Boston Center
06:46 42.2233 -75.6589 122° Southeast 271 312 10,900  Level Boston Center
06:47 42.1842 -75.5728 122° Southeast 271 312 10,900  Level Boston Center
06:48 42.1447 -75.4867 122° Southeast 271 312 10,900  Level Boston Center
06:49 42.1014 -75.3978 123° Southeast 271 312 11,000  Climbing Boston Center
06:50 42.0617 -75.3122 122° Southeast 271 312 11,000  Level Boston Center
06:51 42.0286 -75.2211 116° Southeast 271 312 11,000  Level Boston Center
06:52 41.9956 -75.1275 115° Southeast 271 312 11,000  Level Boston Center
06:53 41.9619 -75.0450 119° Southeast 276 318 11,000  Level Boston Center
06:54 41.9225 -74.9431 117° Southeast 276 318 11,000 -420 Level Boston Center
06:55 41.8739 -74.8742 133° Southeast 271 312 10,200 -960 Descending Boston Center
06:56 41.7983 -74.8044 145° Southeast 283 326 8,900 -1,140 Descending Boston Center
06:57 41.7242 -74.7628 157° South 278 320 8,000 -480 Descending Boston Center
06:58 41.6644 -74.7300 158° South 261 300 8,000  Level Boston Center
06:59 41.5922 -74.6911 158° South 255 293 8,000 -300 Level Boston Center
07:00 41.5386 -74.6617 158° South 255 293 7,400 -840 Descending Boston Center
07:01 41.4583 -74.6172 157° South 262 302 6,400 -600 Descending Boston Center
07:03 41.3167 -74.6167 180° South 247 284 5,600 -420 Descending New York TRACON
07:04 41.2333 -74.5833 163° South 251 289 5,100 -300 Descending New York TRACON
07:05 41.1833 -74.5667 166° South 241 277 5,100  Level New York TRACON
07:06 41.1167 -74.5333 159° South 237 273 5,100  Level New York TRACON
07:07 41.0667 -74.5000 153° Southeast 241 277 5,100 -60 Level New York TRACON
07:08 41.0333 -74.4167 118° Southeast 247 284 5,000 -60 Descending New York TRACON
07:09 41.0167 -74.3333 105° East 251 289 5,000 -240 Level New York TRACON
07:10 40.9667 -74.2667 135° Southeast 245 282 4,600 -540 Descending New York TRACON
07:11 40.9333 -74.1833 118° Southeast 237 273 4,000 -420 Descending New York TRACON
07:12 40.8833 -74.1333 143° Southeast 223 257 3,800 -600 Descending New York TRACON
07:13 40.8500 -74.0833 131° Southeast 204 235 2,900 -840 Descending New York TRACON
07:14 40.8000 -74.1000 194° South 178 205 2,200 -840 Descending New York TRACON
07:15 40.7500 -74.1333 207° Southwest 172 198 1,200 -840 Descending New York TRACON
07:16 40.7167 -74.1500 201° Southwest 123 142 500 -660 Descending New York TRACON
07:18 40.6925 -74.1687 180° South  Level Estimated
07:25 40.6925 -74.1687 180° South  Level Estimated
07:26 40.6925 -74.1687 180° South  Level Estimated